Theta_e
291 283 281 286 286 285 282 279 279 284 287 281 281 282 284 286 285 283 282 282 279 280 282 282 284 284 284 284 284 286 287 287 289 291 293 293 293 297 299 304 307 307 309 309
285 280 287 288 287 284 282 280 279 284 284 282 281 280 283 284 283 283 281 280 279 279 279 281 282 282 282 283 284 285 286 287 288 290 293 293 293 295 298 301 306 307 309 311
282 286 288 286 283 282 281 280 280 277 281 282 278 276 278 281 284 283 281 280 279 278 277 278 280 280 280 280 282 284 285 287 288 289 291 293 294 297 299 301 305 307 308 308
285 287 285 283 282 283 277 283 281 279 274 271 277 268 277 279 279 280 280 279 277 277 278 278 279 278 279 281 282 284 285 286 287 288 289 290 291 292 297 300 305 306 301 300
283 283 281 280 283 283 278 282 279 279 273 275 275 266 275 279 276 278 279 277 276 277 277 277 277 278 280 281 281 283 284 285 286 287 288 289 291 293 295 298 301 301 299 297
284 287 284 284 284 283 283 280 281 277 274 266 273 271 272 272 273 277 278 277 276 275 276 277 278 279 279 281 281 282 283 283 284 284 286 287 288 290 292 294 296 296 295 293
282 282 284 284 279 282 280 276 270 269 267 269 276 271 273 274 276 276 273 274 273 275 276 276 276 276 278 278 279 280 281 281 282 283 284 285 286 288 289 290 291 290 289 288
280 278 280 282 279 276 277 274 269 262 266 267 276 267 274 274 273 273 274 270 275 275 276 275 276 277 277 277 278 279 280 279 280 281 282 283 284 285 285 286 287 286 285 284
279 279 281 281 281 278 276 274 276 267 266 266 271 276 274 275 273 273 271 275 274 274 275 274 275 275 275 276 277 278 279 279 279 280 281 280 281 281 281 283 283 283 283 283
281 275 281 279 280 279 277 279 270 271 262 261 271 272 274 270 271 272 269 271 271 273 274 274 273 274 275 276 277 279 279 278 279 279 279 279 279 279 279 279 279 280 280 281
282 278 277 278 271 272 273 273 274 273 270 263 264 269 270 269 268 267 268 272 269 270 272 272 272 273 274 275 276 277 277 277 278 278 278 278 277 277 277 277 278 278 278 279
282 279 274 275 272 277 277 272 275 268 266 267 266 268 271 268 266 267 270 272 271 272 269 269 270 269 270 274 275 275 275 276 277 278 277 277 277 276 276 276 276 277 277 278
282 279 273 276 275 275 271 275 275 271 270 266 265 271 269 267 267 269 266 267 270 271 269 266 265 265 266 268 273 274 275 276 276 277 277 277 277 276 275 276 276 277 277 277
283 279 273 272 271 270 267 271 274 272 265 267 269 271 274 268 268 266 266 266 266 267 266 264 266 268 268 269 274 274 274 276 276 276 276 276 276 277 277 277 277 277 277 277
281 275 271 270 271 267 265 266 272 270 267 268 266 264 275 274 266 263 263 263 264 264 266 266 265 268 272 272 273 273 274 275 277 276 276 276 277 277 277 277 277 277 277 277
280 274 270 267 265 263 263 268 270 272 267 271 272 271 268 264 263 262 262 262 262 262 262 265 266 270 271 272 272 275 275 275 276 276 276 276 277 277 276 276 277 277 277 277
279 275 270 267 268 269 268 265 268 265 266 268 265 271 266 266 265 266 264 263 263 263 263 263 266 268 270 274 277 275 276 276 275 275 275 276 275 275 276 276 276 276 275 276
278 273 272 267 268 266 274 263 267 266 266 273 270 268 267 267 267 266 266 265 263 263 263 265 269 270 271 274 275 276 276 276 275 275 275 275 275 275 276 275 275 275 276 275
280 277 269 264 263 274 274 266 267 268 272 274 274 268 268 266 268 268 267 266 266 265 264 264 263 264 271 269 273 274 275 275 274 273 273 274 275 275 275 275 275 275 275 275
279 277 271 272 262 265 276 271 274 271 273 271 272 270 268 273 270 274 269 268 266 267 265 265 266 268 269 269 273 274 273 273 272 273 274 273 274 274 273 273 273 274 275 275
272 273 268 265 265 272 275 275 278 271 274 270 273 270 273 271 274 271 271 267 267 267 267 266 266 265 267 268 271 271 271 269 272 273 274 273 273 273 273 273 273 273 273 273
273 271 268 269 266 267 275 276 274 282 270 269 272 273 273 268 266 267 268 268 268 267 267 269 268 270 270 273 273 272 271 272 272 272 271 270 269 273 272 267 269 269 269 269
273 277 275 275 275 278 277 276 274 272 275 273 276 274 277 273 270 271 270 270 270 270 270 271 270 271 271 272 272 271 270 271 269 267 265 265 268 271 271 267 268 268 267 267
279 281 276 276 279 280 282 282 278 277 278 282 281 280 280 278 273 272 272 271 271 271 270 271 270 270 269 270 272 272 271 269 265 263 265 266 266 267 267 271 271 268 267 267
282 279 278 277 280 282 284 283 282 280 277 280 280 281 280 278 274 274 273 272 272 272 271 271 270 269 269 269 269 267 269 267 266 266 267 267 267 266 267 269 268 270 270 270
280 280 279 280 285 284 284 283 284 283 281 280 279 279 280 280 276 275 274 274 273 271 271 270 269 269 268 267 267 266 266 266 266 267 267 267 267 266 267 266 266 275 276 277
Wind_Speed
3 2 7 7 2 5 4 5 11 13 3 3 10 16 18 12 9 6 6 5 3 6 6 6 8 7 8 9 10 12 13 14 10 8 8 9 7 8 8 7 7 7 7 8
2 7 3 4 4 2 6 9 12 10 3 10 12 21 21 11 5 3 3 5 5 7 7 6 7 6 7 11 12 12 13 13 11 8 8 7 6 6 8 9 8 5 6 3
7 2 4 0 3 5 7 8 7 6 10 13 9 9 5 3 6 8 4 3 3 6 8 8 8 7 7 9 10 12 13 14 11 12 8 9 8 7 6 6 5 0 7 7
7 4 2 5 6 3 3 5 6 9 6 5 5 9 4 6 5 5 6 6 3 6 7 7 8 7 8 10 9 11 13 12 10 10 8 11 7 6 6 7 4 5 10 9
2 3 4 3 3 6 9 7 8 8 3 7 2 0 6 5 4 7 9 2 4 6 7 8 6 5 6 8 7 9 11 11 11 9 10 7 8 5 5 6 5 6 7 8
5 3 2 3 2 4 7 7 5 2 2 2 5 2 6 3 4 3 2 6 7 8 9 7 6 7 8 8 10 10 11 12 11 11 9 9 9 5 5 6 5 5 5 4
4 4 3 1 3 3 3 2 4 5 2 5 5 4 10 7 4 3 5 8 6 9 6 7 8 9 10 11 11 11 11 11 10 10 9 9 8 4 4 6 4 5 4 3
3 4 4 2 2 1 3 2 4 5 4 5 6 7 8 4 3 4 8 5 8 6 7 7 9 9 10 12 12 11 11 11 11 10 9 7 7 4 5 6 5 4 3 3
1 2 4 3 2 1 2 1 2 1 2 1 5 5 2 5 7 7 6 6 7 7 7 7 7 8 9 10 11 12 10 10 10 9 7 6 6 8 6 7 6 4 5 4
2 3 4 4 1 1 2 4 2 1 4 7 6 6 6 6 9 6 7 6 5 6 7 6 5 8 8 10 10 10 9 8 7 7 5 4 7 8 6 6 7 6 6 5
3 2 2 4 5 7 2 2 2 1 1 3 5 8 5 7 6 6 5 5 3 3 4 3 4 5 6 7 8 8 9 8 6 4 4 6 7 7 7 7 7 8 7 6
2 1 4 3 2 4 3 1 4 5 4 4 2 12 4 5 5 4 5 4 3 2 1 3 4 4 5 6 6 7 7 7 7 6 5 7 8 9 8 9 9 8 9 10
1 2 4 2 2 1 3 4 2 4 2 7 4 10 2 3 6 5 1 3 3 3 3 4 5 4 4 4 4 4 5 6 7 6 7 8 9 9 9 9 9 9 11 11
1 3 5 5 5 3 3 5 6 5 3 4 9 12 11 5 3 1 1 2 4 3 4 3 4 4 4 4 4 4 5 5 6 7 9 10 9 9 9 10 11 11 11 13
1 4 1 7 7 5 4 6 11 12 7 6 6 4 17 11 3 2 3 3 4 3 3 3 4 4 5 5 4 4 5 6 6 8 10 11 10 10 10 11 11 11 12 12
2 3 1 7 2 4 6 9 10 11 3 13 16 20 4 2 1 2 5 2 3 3 2 3 4 4 5 4 4 5 7 7 8 9 10 9 9 10 11 12 12 12 12 12
2 3 3 7 3 4 7 9 13 5 5 8 7 10 2 3 4 4 3 4 3 0 2 2 1 3 3 5 5 6 7 7 9 10 10 10 9 10 11 11 11 11 11 11
2 1 0 6 5 2 7 2 3 6 7 17 8 3 5 5 3 2 2 6 4 3 3 1 3 4 4 4 6 6 6 7 8 9 9 8 9 10 10 9 10 9 8 8
2 1 4 1 3 9 2 5 8 9 9 14 15 4 3 0 2 5 6 5 7 7 5 4 3 2 2 3 1 4 5 6 7 7 7 6 7 8 8 8 8 6 6 7
4 2 2 1 2 5 7 4 4 1 6 5 9 8 8 5 3 5 9 7 7 7 5 5 4 3 2 3 2 4 5 5 5 4 5 4 4 6 5 4 4 2 3 6
2 2 5 4 5 11 3 4 5 7 9 4 8 7 10 7 5 2 10 5 6 5 8 4 4 4 5 3 3 5 5 4 3 3 5 4 4 5 5 4 3 4 4 5
7 6 5 4 3 10 6 5 7 6 3 2 4 6 9 5 3 4 6 8 9 8 7 7 5 6 6 6 5 5 6 5 4 5 5 4 3 3 3 4 2 3 4 4
5 6 4 9 9 5 8 6 5 5 4 4 4 4 8 8 7 10 7 9 10 10 9 8 7 7 6 6 5 5 5 6 5 4 3 2 2 2 2 3 2 2 1 2
7 5 5 3 6 14 13 11 8 8 7 5 6 8 9 9 11 11 10 10 10 10 10 9 7 7 7 6 5 5 7 6 6 5 3 2 2 1 1 0 1 1 1 1
4 7 7 8 13 15 12 12 7 7 5 7 7 9 14 8 11 14 13 13 12 11 10 9 10 8 8 7 7 5 7 7 6 4 4 3 3 3 2 2 3 2 3 4
9 10 8 11 12 9 9 2 3 7 9 12 10 8 9 11 11 12 13 14 14 14 11 11 10 8 8 8 7 7 7 8 6 5 4 3 3 3 3 3 3 10 12 12
Wind_Direction
178 249 219 255 159 29 326 282 269 279 294 305 264 279 285 278 246 244 172 231 356 348 337 337 324 323 324 327 327 324 321 308 305 300 297 293 293 304 306 304 234 201 216 179
179 231 81 58 65 292 285 284 278 280 60 317 281 287 282 268 256 202 87 57 9 327 324 322 320 329 334 326 331 327 317 310 301 299 293 283 288 280 291 291 270 235 199 131
233 46 120 140 280 261 259 251 289 299 328 270 325 280 136 73 69 71 92 229 13 333 315 323 323 331 336 329 326 321 310 304 304 297 303 283 273 273 280 272 279 205 64 46
266 98 220 244 251 170 274 30 332 313 2 296 78 287 255 140 156 177 212 216 5 329 331 315 320 324 328 322 327 320 310 303 298 309 296 287 278 280 302 314 306 68 62 38
265 180 193 233 243 120 234 352 289 276 232 310 161 40 255 120 202 231 202 125 352 346 321 307 307 324 318 321 317 316 315 312 311 308 299 294 281 289 310 305 337 63 60 39
254 99 274 223 3 217 310 305 260 92 210 266 182 150 267 173 218 292 272 345 344 332 298 308 339 343 331 337 341 333 322 324 322 317 309 303 295 310 327 347 354 22 41 33
177 184 103 330 280 163 266 303 321 328 267 236 159 250 256 192 212 263 295 294 311 290 298 343 353 342 338 342 343 335 333 326 326 322 320 317 307 335 2 5 13 14 16 7
233 265 169 37 39 122 44 106 145 272 296 301 186 239 261 189 216 246 253 248 278 312 8 2 354 348 348 342 336 332 335 331 332 327 326 330 329 15 29 25 26 43 30 12
288 225 107 64 57 335 190 200 79 323 85 347 230 257 191 193 244 245 281 310 326 7 2 10 2 347 340 337 331 327 337 336 332 335 334 339 353 38 32 35 42 47 28 42
39 308 162 117 67 52 310 155 87 153 310 297 278 280 257 246 256 285 316 328 342 7 7 9 346 340 345 332 329 329 347 337 333 337 342 357 29 40 44 49 51 53 43 43
138 129 128 106 194 169 148 196 208 90 154 232 306 266 213 208 232 279 302 329 17 356 31 333 321 338 329 326 330 345 348 339 344 348 11 37 44 46 52 56 52 53 57 49
62 355 264 229 314 321 337 301 160 134 256 242 189 272 195 206 227 244 283 345 324 58 213 292 334 328 325 330 347 346 349 352 359 5 36 49 52 51 54 54 53 55 62 58
103 213 307 264 8 357 235 188 165 102 69 226 171 264 233 283 275 264 264 265 284 288 323 336 339 327 318 325 336 350 356 11 16 19 42 48 52 56 58 63 66 65 65 64
120 284 209 224 212 142 210 177 180 169 164 235 231 288 291 294 257 31 340 289 303 307 289 328 329 340 331 331 349 7 16 32 37 49 59 56 53 59 63 68 67 65 66 69
318 260 341 270 254 164 223 191 185 202 210 194 245 265 291 303 276 243 244 274 316 316 317 2 348 349 348 359 8 18 23 27 36 58 62 55 52 54 60 61 61 62 64 64
104 278 68 280 58 167 258 215 205 222 259 268 274 286 245 194 136 294 240 223 283 266 351 359 8 353 351 6 19 39 37 29 32 44 52 50 50 56 56 57 58 60 61 63
194 302 1 272 216 243 300 212 181 190 212 166 187 228 166 304 272 257 202 188 227 250 102 48 31 324 25 13 52 55 52 41 46 45 43 44 47 54 56 56 59 63 65 73
168 257 260 274 350 345 248 326 176 194 226 213 272 228 197 209 220 192 191 170 180 158 150 125 49 4 24 23 50 68 71 68 62 53 46 44 51 55 55 57 59 61 64 70
329 268 290 239 264 282 292 246 163 169 281 198 218 169 178 174 19 287 179 167 163 167 157 159 171 235 10 347 56 78 77 76 74 68 59 51 54 61 57 57 56 54 67 75
202 218 148 272 242 226 245 245 193 82 319 199 171 171 160 163 44 254 179 158 143 153 156 161 186 230 188 286 142 114 102 95 86 83 80 69 74 85 76 68 69 69 82 79
190 211 218 235 281 286 238 169 143 77 241 187 170 160 155 184 200 211 137 142 150 156 167 161 183 208 201 236 117 113 101 96 104 86 90 88 80 87 87 79 58 70 69 75
187 179 205 189 225 287 159 88 153 220 297 201 195 181 175 149 109 127 142 148 156 162 171 180 189 204 196 199 179 150 141 140 125 117 107 90 61 91 91 90 53 65 80 73
251 215 197 198 222 236 205 210 220 170 188 223 183 208 169 149 172 161 166 166 178 178 181 185 194 194 190 190 187 161 165 140 122 98 106 95 74 88 126 113 107 59 94 146
225 212 240 18 290 240 239 236 216 192 212 196 207 176 189 182 164 170 162 177 183 186 190 184 194 192 195 191 194 177 156 144 131 132 149 144 140 144 348 87 191 170 213 241
214 151 216 258 278 285 267 217 227 210 193 203 210 191 196 176 188 174 177 181 184 184 184 180 192 195 202 181 187 171 152 144 158 157 170 178 191 193 213 242 205 233 244 192
185 211 203 235 237 224 265 158 170 201 208 213 199 208 197 187 187 185 188 184 179 181 172 181 193 196 199 183 183 178 164 159 158 175 182 190 182 187 198 193 245 244 234 233